EW8668 Weather Reports


Display with metric or nautical units.
time (UTC)temp
F
wind
direction
speed
MPH
gust
MPH
rain 1hr
in
rain 24hr
in
rain mn
in
humidity
%
barometer
mb
20260510054804 56 127 1.0 5.0 0.00 0.11 0.07 98 1011.9
20260510054305 55 123 1.0 5.0 0.00 0.11 0.07 98 1011.8
20260510053804 55 40 0.0 2.0 0.00 0.11 0.07 98 1011.7
20260510053303 55 60 2.0 3.0 0.00 0.11 0.07 98 1011.9
20260510051803 54 32 2.0 5.0 0.00 0.11 0.07 98 1011.5
20260510050804 54 126 1.0 2.0 0.00 0.11 0.07 98 1011.6
20260510044805 53 333 0.0 2.0 0.00 0.11 0.07 98 1011.6
20260510043804 53 94 0.0 1.0 0.00 0.11 0.07 98 1011.6
20260510043303 53 68 1.0 2.0 0.00 0.11 0.07 98 1011.7
20260510041805 53 347 1.0 2.0 0.00 0.11 0.07 98 1012.0
20260510041304 54 68 1.0 2.0 0.00 0.11 0.07 98 1011.7
20260510040804 54 89 1.0 2.0 0.00 0.11 0.07 98 1011.9
20260510034803 54 109 0.0 2.0 0.00 0.11 0.07 98 1012.4
20260510034303 54 62 0.0 1.0 0.00 0.11 0.07 98 1012.3
20260510033804 54 111 0.0 2.0 0.00 0.11 0.07 98 1012.1
20260510033303 54 104 2.0 2.0 0.00 0.11 0.07 98 1012.0
20260510031303 54 83 0.0 1.0 0.00 0.11 0.07 98 1012.2
20260510030804 54 207 0.0 1.0 0.00 0.11 0.07 98 1012.3
20260510030304 54 241 0.0 1.0 0.00 0.11 0.07 98 1012.4
20260510024806 54 188 0.0 1.0 0.01 0.11 0.07 97 1012.5
20260510024305 54 128 0.0 1.0 0.01 0.11 0.07 97 1012.2
20260510023806 54 110 2.0 2.0 0.02 0.11 0.07 97 1012.4
20260510023306 54 112 1.0 3.0 0.02 0.11 0.07 97 1012.4
20260510021805 54 90 2.0 3.0 0.05 0.11 0.07 97 1012.5
20260510021305 54 116 1.0 3.0 0.05 0.11 0.07 97 1012.7
20260510020805 55 94 1.0 2.0 0.05 0.11 0.07 97 1012.7
20260510020306 54 103 0.0 2.0 0.05 0.11 0.07 97 1012.7
20260510014805 54 82 1.0 2.0 0.05 0.10 0.06 97 1012.9
20260510013806 54 99 0.0 2.0 0.05 0.09 0.06 97 1012.9
20260510013306 54 88 1.0 2.0 0.04 0.08 0.05 97 1012.9
20260510011805 54 69 1.0 1.0 0.02 0.06 0.02 97 1012.7
20260510011306 55 243 0.0 1.0 0.02 0.06 0.02 97 1012.7
20260510010805 55 22 0.0 1.0 0.02 0.06 0.02 96 1012.6
20260510010305 55 78 0.0 2.0 0.01 0.06 0.02 96 1012.7
20260510004806 54 120 0.0 0.0 0.01 0.05 0.02 96 1012.7
20260510004307 55 95 0.0 1.0 0.00 0.05 0.01 96 1012.3
20260510003806 55 99 0.0 1.0 0.01 0.05 0.01 96 1012.5
20260510003305 55 133 0.0 1.0 0.00 0.04 0.01 96 1012.6
20260510001805 55 51 0.0 2.0 0.01 0.04 0.01 95 1012.7
20260510001305 55 68 1.0 2.0 0.01 0.04 0.01 95 1012.7
20260510000805 55 77 0.0 2.0 0.01 0.04 0.01 95 1012.8
20260510000306 55 59 2.0 3.0 0.01 0.04 0.01 95 1012.6
20260509234806 55 50 0.0 1.0 0.01 0.04 0.01 94 1013.1
20260509234305 55 269 0.0 1.0 0.01 0.04 0.01 94 1012.9
20260509233805 55 135 0.0 2.0 0.00 0.04 0.00 93 1012.9
20260509233305 55 83 1.0 2.0 0.00 0.04 0.00 92 1012.7
20260509231805 55 113 0.0 5.0 0.00 0.04 0.00 92 1013.3
20260509231305 55 262 0.0 2.0 0.00 0.04 0.00 93 1013.3
20260509230806 55 259 2.0 5.0 0.00 0.04 0.00 93 1013.1
20260509230305 55 264 1.0 3.0 0.00 0.04 0.00 93 1013.2
20260509224806 55 224 0.0 1.0 0.00 0.04 0.00 93 1013.1
20260509224306 55 115 0.0 2.0 0.00 0.04 0.00 92 1013.1
20260509223806 55 113 0.0 2.0 0.01 0.04 0.00 91 1013.1
20260509223305 55 182 1.0 3.0 0.02 0.04 0.00 92 1013.4
20260509221806 56 91 1.0 5.0 0.00 0.04 0.00 88 1013.2
20260509221305 56 88 1.0 6.0 0.00 0.04 0.00 88 1012.7
20260509220805 57 47 2.0 6.0 0.00 0.04 0.00 87 1013.0
20260509220305 57 86 2.0 12.0 0.00 0.04 0.00 87 1012.9
20260509214805 57 85 4.0 12.0 0.04 0.04 0.04 88 1013.0
20260509214304 57 96 5.0 7.0 0.04 0.04 0.04 87 1013.0
20260509213805 57 91 1.0 5.0 0.03 0.03 0.03 86 1013.2
20260509213306 58 119 1.0 5.0 0.02 0.02 0.02 87 1013.6
20260509211806 60 166 1.0 7.0 0.00 0.00 0.00 76 1014.0
20260509211305 60 117 1.0 6.0 0.00 0.00 0.00 74 1013.7
20260509210804 60 74 1.0 2.0 0.00 0.00 0.00 72 1013.4
20260509210305 60 217 1.0 6.0 0.00 0.00 0.00 71 1013.3
20260509204805 61 102 2.0 9.0 0.00 0.00 0.00 68 1013.1
20260509203805 62 111 3.0 12.0 0.00 0.00 0.00 64 1013.5
20260509203305 62 112 3.0 9.0 0.00 0.00 0.00 64 1013.5
20260509201804 63 134 2.0 8.0 0.00 0.00 0.00 63 1013.6
20260509201305 63 116 2.0 7.0 0.00 0.00 0.00 63 1013.3
20260509200806 63 108 1.0 10.0 0.00 0.00 0.00 63 1013.4
20260509200305 63 119 2.0 10.0 0.00 0.00 0.00 63 1013.3
20260509194804 63 100 2.0 6.0 0.00 0.00 0.00 63 1013.6
20260509194306 63 112 2.0 7.0 0.00 0.00 0.00 63 1013.1
20260509193805 63 117 3.0 8.0 0.00 0.00 0.00 63 1013.3
20260509193306 63 94 6.0 12.0 0.00 0.00 0.00 63 1013.1
20260509191806 63 104 3.0 9.0 0.00 0.00 0.00 62 1013.0
20260509191305 63 117 2.0 6.0 0.00 0.00 0.00 63 1013.0
20260509190805 63 146 2.0 6.0 0.00 0.00 0.00 62 1013.3
20260509190305 62 113 1.0 3.0 0.00 0.00 0.00 64 1013.3
20260509184805 62 156 2.0 5.0 0.00 0.00 0.00 65 1012.9
20260509184304 62 125 1.0 3.0 0.00 0.00 0.00 67 1012.7
20260509183805 63 129 0.0 2.0 0.00 0.00 0.00 67 1012.7
20260509183304 63 150 1.0 10.0 0.00 0.00 0.00 66 1012.8
20260509181804 64 114 1.0 7.0 0.00 0.00 0.00 65 1013.0
20260509181304 64 124 2.0 14.0 0.00 0.00 0.00 65 1013.0
20260509180306 64 113 3.0 16.0 0.00 0.00 0.00 65 1012.7
20260509174804 64 114 3.0 10.0 0.00 0.00 0.00 64 1012.6
20260509174305 64 98 2.0 8.0 0.00 0.00 0.00 64 1012.6
20260509173805 64 140 3.0 7.0 0.00 0.00 0.00 64 1012.7
20260509173304 65 109 2.0 10.0 0.00 0.00 0.00 64 1012.8
20260509171805 65 122 3.0 8.0 0.00 0.00 0.00 64 1012.8
20260509171306 65 126 1.0 5.0 0.00 0.00 0.00 65 1013.0
20260509170805 65 128 1.0 3.0 0.00 0.00 0.00 65 1013.2
20260509170306 65 152 2.0 8.0 0.00 0.00 0.00 64 1012.8
20260509164805 66 92 2.0 6.0 0.00 0.00 0.00 64 1012.7
20260509164307 66 119 2.0 6.0 0.00 0.00 0.00 63 1012.7
20260509163805 66 102 2.0 8.0 0.00 0.00 0.00 63 1012.5
20260509163306 66 121 3.0 12.0 0.00 0.00 0.00 62 1012.7
20260509161804 67 121 3.0 13.0 0.00 0.00 0.00 60 1012.4
20260509161306 67 147 3.0 8.0 0.00 0.00 0.00 59 1012.4
20260509160805 68 130 3.0 8.0 0.00 0.00 0.00 59 1012.5
20260509160304 68 122 2.0 12.0 0.00 0.00 0.00 59 1012.4
20260509154804 67 92 3.0 10.0 0.00 0.00 0.00 61 1013.0
20260509154305 67 114 4.0 8.0 0.00 0.00 0.00 60 1013.0
20260509153805 67 131 2.0 6.0 0.00 0.00 0.00 60 1013.1
20260509153305 67 126 3.0 8.0 0.00 0.00 0.00 60 1013.0
20260509151805 68 71 4.0 13.0 0.00 0.00 0.00 56 1013.0
20260509150805 70 204 1.0 9.0 0.00 0.00 0.00 56 1013.2
20260509150306 68 130 3.0 15.0 0.00 0.00 0.00 55 1013.4
20260509144804 69 168 3.0 7.0 0.00 0.00 0.00 53 1013.6
20260509143305 70 149 1.0 10.0 0.00 0.00 0.00 53 1013.4
20260509140306 69 123 2.0 10.0 0.00 0.00 0.00 47 1013.9
20260509134804 68 157 5.0 15.0 0.00 0.00 0.00 46 1014.4
20260509133804 68 111 6.0 15.0 0.00 0.00 0.00 49 1014.2
20260509131804 69 118 4.0 8.0 0.00 0.00 0.00 54 1014.4
20260509130805 68 100 9.0 15.0 0.00 0.00 0.00 51 1014.6
20260509130305 69 109 5.0 16.0 0.00 0.00 0.00 50 1014.6
20260509124806 69 152 3.0 12.0 0.00 0.00 0.00 50 1014.8
20260509124304 69 180 3.0 13.0 0.00 0.00 0.00 50 1014.4
20260509123805 69 141 2.0 6.0 0.00 0.00 0.00 52 1014.6
20260509121304 69 119 6.0 12.0 0.00 0.00 0.00 48 1014.7
20260509120804 70 153 2.0 9.0 0.00 0.00 0.00 49 1014.9
20260509114805 69 122 3.0 14.0 0.00 0.00 0.00 47 1015.2
20260509113804 70 115 4.0 14.0 0.00 0.00 0.00 46 1015.1
20260509113304 69 174 4.0 15.0 0.00 0.00 0.00 46 1015.2
20260509111804 69 124 2.0 13.0 0.00 0.00 0.00 50 1015.3
20260509111304 69 113 4.0 12.0 0.00 0.00 0.00 46 1015.3
20260509110304 69 97 4.0 13.0 0.00 0.00 0.00 48 1015.7
20260509104804 69 121 5.0 14.0 0.00 0.00 0.00 49 1015.2
20260509104306 69 97 5.0 12.0 0.00 0.00 0.00 46 1015.7
20260509103804 69 124 2.0 9.0 0.00 0.00 0.00 47 1015.5
20260509103305 69 115 5.0 13.0 0.00 0.00 0.00 46 1015.5
20260509101805 69 161 3.0 8.0 0.00 0.00 0.00 47 1015.6
20260509101304 68 110 4.0 9.0 0.00 0.00 0.00 47 1015.7
20260509100804 69 154 2.0 14.0 0.00 0.00 0.00 46 1015.9
20260509094304 69 103 5.0 10.0 0.00 0.00 0.00 49 1015.6
20260509093804 69 114 5.0 10.0 0.00 0.00 0.00 49 1015.7
20260509093304 68 150 3.0 15.0 0.00 0.00 0.00 48 1015.6
20260509091805 69 83 3.0 7.0 0.00 0.00 0.00 52 1015.8
20260509091306 68 126 2.0 8.0 0.00 0.00 0.00 51 1015.7
20260509090804 67 107 5.0 12.0 0.00 0.00 0.00 51 1015.8
20260509090305 67 101 5.0 9.0 0.00 0.00 0.00 51 1015.6
20260509084806 68 106 3.0 7.0 0.00 0.00 0.00 53 1016.2
20260509084304 67 101 5.0 8.0 0.00 0.00 0.00 54 1016.4
20260509083804 67 93 4.0 10.0 0.00 0.00 0.00 55 1016.1
20260509083305 66 106 4.0 10.0 0.00 0.00 0.00 55 1016.2
20260509081805 67 112 3.0 8.0 0.00 0.00 0.00 54 1016.3
20260509081305 68 99 3.0 8.0 0.00 0.00 0.00 53 1016.0
20260509080805 67 172 1.0 6.0 0.00 0.00 0.00 55 1016.0
20260509074304 66 31 2.0 3.0 0.00 0.00 0.00 60 1016.3
20260509073804 65 47 1.0 2.0 0.00 0.00 0.00 65 1016.2
20260509073305 64 39 0.0 3.0 0.00 0.00 0.00 66 1016.4
20260509071804 61 25 1.0 3.0 0.00 0.00 0.00 71 1016.8
20260509071306 61 44 3.0 5.0 0.00 0.00 0.00 70 1016.6
20260509070804 62 73 2.0 2.0 0.00 0.00 0.00 71 1016.4
20260509070305 62 70 2.0 3.0 0.00 0.00 0.00 70 1016.5
20260509064804 59 139 0.0 1.0 0.00 0.00 0.00 74 1016.8
20260509064304 58 28 0.0 1.0 0.00 0.00 0.00 75 1016.9
20260509063303 58 354 0.0 1.0 0.00 0.00 0.00 75 1017.0
20260509061805 56 6 0.0 0.0 0.00 0.00 0.00 76 1017.2
20260509061304 57 98 0.0 1.0 0.00 0.00 0.00 74 1016.9
20260509060804 57 93 0.0 1.0 0.00 0.00 0.00 74 1017.1
20260509060304 55 104 1.0 2.0 0.00 0.00 0.00 78 1017.1